Time,TemperatureF,DewpointF,PressureIn,WindDirection,WindDirectionDegrees,WindSpeedMPH,WindSpeedGustMPH,Humidity,HourlyPrecipIn,Conditions,Clouds,dailyrainin,SoftwareType,DateUTC
2013-04-18 00:01:00,76.6,68.5,29.82,SSE,148,0.0,0.0,76,0.00,,---,0.00,VWS V14.01,2013-04-18 05:01:00,
2013-04-18 00:06:00,76.6,68.5,29.82,SSE,153,0.0,0.0,76,0.00,,---,0.00,VWS V14.01,2013-04-18 05:06:00,
2013-04-18 00:11:00,76.5,68.4,29.83,East,98,0.0,0.0,76,0.00,,---,0.00,VWS V14.01,2013-04-18 05:11:00,
2013-04-18 00:16:00,76.3,68.6,29.83,SSE,163,0.0,0.0,77,0.00,,---,0.00,VWS V14.01,2013-04-18 05:16:00,
2013-04-18 00:21:00,76.3,68.6,29.83,SE,130,0.0,0.0,77,0.00,,---,0.00,VWS V14.01,2013-04-18 05:21:00,
2013-04-18 00:26:00,76.3,68.6,29.83,SSE,148,0.0,0.0,77,0.00,,---,0.00,VWS V14.01,2013-04-18 05:26:00,
2013-04-18 00:31:00,76.3,68.6,29.83,ESE,112,0.0,0.0,77,0.00,,---,0.00,VWS V14.01,2013-04-18 05:31:00,
2013-04-18 00:36:00,76.2,68.5,29.83,SE,138,0.0,0.0,77,0.00,,---,0.00,VWS V14.01,2013-04-18 05:36:00,
2013-04-18 00:41:00,76.2,68.5,29.82,SE,124,0.0,0.0,77,0.00,,---,0.00,VWS V14.01,2013-04-18 05:41:00,
2013-04-18 00:46:00,76.2,68.5,29.82,SE,141,0.0,0.0,77,0.00,,---,0.00,VWS V14.01,2013-04-18 05:46:00,
2013-04-18 00:51:00,76.2,68.5,29.82,SE,144,0.0,0.0,77,0.00,,---,0.00,VWS V14.01,2013-04-18 05:51:00,
2013-04-18 00:56:00,76.3,68.6,29.82,SSE,164,0.0,0.0,77,0.00,,---,0.00,VWS V14.01,2013-04-18 05:56:00,
2013-04-18 01:01:00,76.2,68.5,29.82,SE,132,0.0,0.0,77,0.00,,---,0.00,VWS V14.01,2013-04-18 06:01:00,
2013-04-18 01:06:00,76.2,68.5,29.81,SE,146,0.0,0.0,77,0.00,,---,0.00,VWS V14.01,2013-04-18 06:06:00,
2013-04-18 01:11:00,76.2,68.5,29.82,SE,136,0.0,0.0,77,0.00,,---,0.00,VWS V14.01,2013-04-18 06:11:00,
2013-04-18 01:16:00,76.1,68.4,29.81,SE,142,0.0,0.0,77,0.00,,---,0.00,VWS V14.01,2013-04-18 06:16:00,
2013-04-18 01:21:00,76.0,68.7,29.81,SE,143,0.0,0.0,78,0.00,,---,0.00,VWS V14.01,2013-04-18 06:21:00,
2013-04-18 01:26:00,76.0,68.7,29.81,SE,144,0.0,0.0,78,0.00,,---,0.00,VWS V14.01,2013-04-18 06:26:00,
2013-04-18 01:31:00,75.9,68.6,29.81,SSE,157,0.0,0.0,78,0.00,,---,0.00,VWS V14.01,2013-04-18 06:31:00,
2013-04-18 01:36:00,75.7,68.4,29.81,SSE,153,0.0,0.0,78,0.00,,---,0.00,VWS V14.01,2013-04-18 06:36:00,
2013-04-18 01:41:00,75.6,68.6,29.81,South,173,0.0,0.0,79,0.00,,---,0.00,VWS V14.01,2013-04-18 06:41:00,
2013-04-18 01:46:00,75.5,68.5,29.81,SSE,150,0.0,0.0,79,0.00,,---,0.00,VWS V14.01,2013-04-18 06:46:00,
2013-04-18 01:51:00,75.4,68.4,29.81,SE,140,0.0,0.0,79,0.00,,---,0.00,VWS V14.01,2013-04-18 06:51:00,
2013-04-18 01:56:00,75.3,68.3,29.81,SSE,167,0.0,0.0,79,0.00,,---,0.00,VWS V14.01,2013-04-18 06:56:00,
2013-04-18 02:02:00,75.2,68.2,29.80,SSE,151,0.0,0.0,79,0.00,,---,0.00,VWS V14.01,2013-04-18 07:02:00,
2013-04-18 02:07:00,75.1,68.2,29.80,SSE,155,0.0,0.0,79,0.00,,---,0.00,VWS V14.01,2013-04-18 07:07:00,
2013-04-18 02:11:00,75.2,68.2,29.80,South,188,0.0,0.0,79,0.00,,---,0.00,VWS V14.01,2013-04-18 07:11:00,
2013-04-18 02:16:00,75.2,68.2,29.79,SE,129,0.0,0.0,79,0.00,,---,0.00,VWS V14.01,2013-04-18 07:16:00,
2013-04-18 02:21:00,75.1,68.2,29.79,ESE,119,0.0,0.0,79,0.00,,---,0.00,VWS V14.01,2013-04-18 07:21:00,
2013-04-18 02:26:00,75.0,68.1,29.79,ESE,123,0.0,0.0,79,0.00,,---,0.00,VWS V14.01,2013-04-18 07:26:00,
2013-04-18 02:31:00,75.0,68.1,29.79,SE,130,0.0,0.0,79,0.00,,---,0.00,VWS V14.01,2013-04-18 07:31:00,
2013-04-18 02:36:00,74.9,67.9,29.79,SSE,167,0.0,0.0,79,0.00,,---,0.00,VWS V14.01,2013-04-18 07:36:00,
2013-04-18 02:41:00,74.8,67.9,29.78,SSE,148,0.0,0.0,79,0.00,,---,0.00,VWS V14.01,2013-04-18 07:41:00,
2013-04-18 02:47:00,74.7,68.1,29.79,SE,139,0.0,0.0,80,0.00,,---,0.00,VWS V14.01,2013-04-18 07:47:00,
2013-04-18 02:52:00,74.6,68.0,29.78,SSE,162,0.0,0.0,80,0.00,,---,0.00,VWS V14.01,2013-04-18 07:52:00,
2013-04-18 02:56:00,74.5,67.9,29.78,ESE,123,0.0,0.0,80,0.00,,---,0.00,VWS V14.01,2013-04-18 07:56:00,
2013-04-18 03:02:00,74.5,67.9,29.78,SSE,166,0.0,0.0,80,0.00,,---,0.00,VWS V14.01,2013-04-18 08:02:00,
2013-04-18 03:07:00,74.4,67.8,29.78,SSE,156,0.0,0.0,80,0.00,,---,0.00,VWS V14.01,2013-04-18 08:07:00,
2013-04-18 03:11:00,74.2,67.6,29.78,SSE,149,0.0,0.0,80,0.00,,---,0.00,VWS V14.01,2013-04-18 08:11:00,
2013-04-18 03:16:00,74.1,67.9,29.78,SE,142,0.0,0.0,81,0.00,,---,0.00,VWS V14.01,2013-04-18 08:16:00,
2013-04-18 03:21:00,74.2,68.0,29.78,SE,133,0.0,0.0,81,0.00,,---,0.00,VWS V14.01,2013-04-18 08:21:00,
2013-04-18 03:26:00,74.1,67.9,29.78,ESE,122,0.0,0.0,81,0.00,,---,0.00,VWS V14.01,2013-04-18 08:26:00,
2013-04-18 03:31:00,74.1,67.9,29.78,SSE,152,0.0,0.0,81,0.00,,---,0.00,VWS V14.01,2013-04-18 08:31:00,
2013-04-18 03:37:00,74.1,67.9,29.78,SSE,163,0.0,0.0,81,0.00,,---,0.00,VWS V14.01,2013-04-18 08:37:00,
2013-04-18 03:41:00,74.2,67.6,29.78,SE,138,0.0,0.0,80,0.00,,---,0.00,VWS V14.01,2013-04-18 08:41:00,
2013-04-18 03:46:00,74.2,67.6,29.78,SE,126,0.0,0.0,80,0.00,,---,0.00,VWS V14.01,2013-04-18 08:46:00,
2013-04-18 03:52:00,74.1,67.5,29.78,SE,138,0.0,0.0,80,0.00,,---,0.00,VWS V14.01,2013-04-18 08:52:00,
2013-04-18 03:57:00,74.0,67.4,29.78,SE,144,0.0,0.0,80,0.00,,---,0.00,VWS V14.01,2013-04-18 08:57:00,
2013-04-18 04:02:00,73.9,67.3,29.78,SSE,148,0.0,0.0,80,0.00,,---,0.00,VWS V14.01,2013-04-18 09:02:00,
2013-04-18 04:07:00,73.8,67.6,29.78,SSE,157,0.0,0.0,81,0.00,,---,0.00,VWS V14.01,2013-04-18 09:07:00,
2013-04-18 04:12:00,73.8,67.6,29.77,ESE,105,0.0,0.0,81,0.00,,---,0.00,VWS V14.01,2013-04-18 09:12:00,
2013-04-18 04:17:00,73.7,67.5,29.77,SSE,157,0.0,0.0,81,0.00,,---,0.00,VWS V14.01,2013-04-18 09:17:00,
2013-04-18 04:22:00,73.7,67.5,29.77,SSE,164,0.0,0.0,81,0.00,,---,0.00,VWS V14.01,2013-04-18 09:22:00,
2013-04-18 04:27:00,73.7,67.2,29.77,SSE,168,0.0,0.0,80,0.00,,---,0.00,VWS V14.01,2013-04-18 09:27:00,
2013-04-18 04:31:00,73.7,67.2,29.77,South,171,0.0,0.0,80,0.00,,---,0.00,VWS V14.01,2013-04-18 09:31:00,
2013-04-18 04:36:00,73.7,67.2,29.77,SSE,167,0.0,0.0,80,0.00,,---,0.00,VWS V14.01,2013-04-18 09:36:00,
2013-04-18 04:41:00,73.7,67.2,29.77,SE,126,0.0,0.0,80,0.00,,---,0.00,VWS V14.01,2013-04-18 09:41:00,
2013-04-18 04:46:00,73.7,67.2,29.77,SSE,162,0.0,0.0,80,0.00,,---,0.00,VWS V14.01,2013-04-18 09:46:00,
2013-04-18 04:51:00,73.6,67.1,29.78,SE,128,0.0,0.0,80,0.00,,---,0.00,VWS V14.01,2013-04-18 09:51:00,
2013-04-18 04:56:00,73.6,67.1,29.78,SSE,161,0.0,0.0,80,0.00,,---,0.00,VWS V14.01,2013-04-18 09:56:00,
2013-04-18 05:01:00,73.5,67.0,29.78,SSE,150,0.0,0.0,80,0.00,,---,0.00,VWS V14.01,2013-04-18 10:01:00,
2013-04-18 05:06:00,73.4,66.9,29.78,SSE,153,0.0,0.0,80,0.00,,---,0.00,VWS V14.01,2013-04-18 10:06:00,
2013-04-18 05:11:00,73.3,66.8,29.78,SE,144,0.0,0.0,80,0.00,,---,0.00,VWS V14.01,2013-04-18 10:11:00,
2013-04-18 05:16:00,73.2,66.7,29.78,SSW,192,0.0,0.0,80,0.00,,---,0.00,VWS V14.01,2013-04-18 10:16:00,
2013-04-18 05:21:00,73.1,66.9,29.78,SSE,163,0.0,0.0,81,0.00,,---,0.00,VWS V14.01,2013-04-18 10:21:00,
2013-04-18 05:26:00,73.1,66.9,29.78,SSE,150,0.0,0.0,81,0.00,,---,0.00,VWS V14.01,2013-04-18 10:26:00,
2013-04-18 05:31:00,73.0,66.8,29.78,SE,135,0.0,0.0,81,0.00,,---,0.00,VWS V14.01,2013-04-18 10:31:00,
2013-04-18 05:36:00,73.0,66.8,29.78,SE,136,0.0,0.0,81,0.00,,---,0.00,VWS V14.01,2013-04-18 10:36:00,
2013-04-18 05:41:00,73.0,66.8,29.78,SSE,147,0.0,0.0,81,0.00,,---,0.00,VWS V14.01,2013-04-18 10:41:00,
2013-04-18 05:46:00,73.0,66.8,29.78,SE,124,0.0,0.0,81,0.00,,---,0.00,VWS V14.01,2013-04-18 10:46:00,
2013-04-18 05:51:00,73.0,66.8,29.78,SSE,155,0.0,0.0,81,0.00,,---,0.00,VWS V14.01,2013-04-18 10:51:00,
2013-04-18 05:56:00,72.9,66.7,29.78,ESE,117,0.0,0.0,81,0.00,,---,0.00,VWS V14.01,2013-04-18 10:56:00,
2013-04-18 06:01:00,72.9,66.7,29.78,ESE,114,0.0,0.0,81,0.00,,---,0.00,VWS V14.01,2013-04-18 11:01:00,
2013-04-18 06:06:00,72.8,66.6,29.78,SE,145,0.0,0.0,81,0.00,,---,0.00,VWS V14.01,2013-04-18 11:06:00,
2013-04-18 06:11:00,72.8,66.6,29.79,SE,138,0.0,0.0,81,0.00,,---,0.00,VWS V14.01,2013-04-18 11:11:00,
2013-04-18 06:16:00,72.7,66.5,29.79,South,171,0.0,0.0,81,0.00,,---,0.00,VWS V14.01,2013-04-18 11:16:00,
2013-04-18 06:21:00,72.6,66.4,29.79,SE,146,0.0,0.0,81,0.00,,---,0.00,VWS V14.01,2013-04-18 11:21:00,
2013-04-18 06:26:00,72.5,66.3,29.79,SE,140,0.0,0.0,81,0.00,,---,0.00,VWS V14.01,2013-04-18 11:26:00,
2013-04-18 06:31:00,72.5,66.3,29.79,SE,144,0.0,0.0,81,0.00,,---,0.00,VWS V14.01,2013-04-18 11:31:00,
2013-04-18 06:36:00,72.4,66.2,29.80,SSE,168,0.0,0.0,81,0.00,,---,0.00,VWS V14.01,2013-04-18 11:36:00,
2013-04-18 06:41:00,72.4,66.2,29.80,SSE,154,0.0,0.0,81,0.00,,---,0.00,VWS V14.01,2013-04-18 11:41:00,
2013-04-18 06:46:00,72.3,66.2,29.80,SE,146,0.0,0.0,81,0.00,,---,0.00,VWS V14.01,2013-04-18 11:46:00,
2013-04-18 06:51:00,72.4,66.2,29.80,SSE,157,0.0,0.0,81,0.00,,---,0.00,VWS V14.01,2013-04-18 11:51:00,
2013-04-18 06:56:00,72.4,66.2,29.80,SSE,158,0.0,0.0,81,0.00,,---,0.00,VWS V14.01,2013-04-18 11:56:00,
2013-04-18 07:01:00,72.4,66.2,29.80,SSE,151,0.0,0.0,81,0.00,,---,0.00,VWS V14.01,2013-04-18 12:01:00,
2013-04-18 07:06:00,72.4,65.9,29.80,SSE,147,0.0,0.0,80,0.00,,---,0.00,VWS V14.01,2013-04-18 12:06:00,
2013-04-18 07:12:00,72.4,65.9,29.80,SSE,148,0.0,0.0,80,0.00,,---,0.00,VWS V14.01,2013-04-18 12:12:00,
2013-04-18 07:17:00,72.4,65.5,29.80,SE,140,0.0,0.0,79,0.00,,---,0.00,VWS V14.01,2013-04-18 12:17:00,
2013-04-18 07:22:00,72.5,65.6,29.80,South,169,0.0,0.0,79,0.00,,---,0.00,VWS V14.01,2013-04-18 12:22:00,
2013-04-18 07:27:00,72.4,65.2,29.80,SSE,159,0.0,0.0,78,0.00,,---,0.00,VWS V14.01,2013-04-18 12:27:00,
2013-04-18 07:32:00,72.4,65.5,29.80,SSE,153,0.0,0.0,79,0.00,,---,0.00,VWS V14.01,2013-04-18 12:32:00,
2013-04-18 07:37:00,72.5,65.6,29.79,SE,144,0.0,0.0,79,0.00,,---,0.00,VWS V14.01,2013-04-18 12:37:00,
2013-04-18 07:42:00,72.4,65.2,29.79,SSW,198,0.0,0.0,78,0.00,,---,0.00,VWS V14.01,2013-04-18 12:42:00,
2013-04-18 07:47:00,72.4,65.2,29.79,South,173,0.0,0.0,78,0.00,,---,0.00,VWS V14.01,2013-04-18 12:47:00,
2013-04-18 07:51:00,72.3,64.7,29.78,SE,136,0.0,0.0,77,0.00,,---,0.00,VWS V14.01,2013-04-18 12:51:00,
2013-04-18 07:57:00,72.3,64.7,29.79,SE,132,0.0,0.0,77,0.00,,---,0.00,VWS V14.01,2013-04-18 12:57:00,
2013-04-18 08:02:00,72.4,64.8,29.79,SE,127,0.0,0.0,77,0.00,,---,0.00,VWS V14.01,2013-04-18 13:02:00,
2013-04-18 08:07:00,72.4,64.4,29.79,ESE,119,0.0,0.0,76,0.00,,---,0.00,VWS V14.01,2013-04-18 13:07:00,
2013-04-18 08:12:00,72.4,64.4,29.78,SE,139,0.0,0.0,76,0.00,,---,0.00,VWS V14.01,2013-04-18 13:12:00,
2013-04-18 08:17:00,72.4,64.4,29.78,SSE,148,0.0,0.0,76,0.00,,---,0.00,VWS V14.01,2013-04-18 13:17:00,
2013-04-18 08:22:00,72.5,64.1,29.78,SSW,197,0.0,0.0,75,0.00,,---,0.00,VWS V14.01,2013-04-18 13:22:00,
2013-04-18 08:27:00,72.5,64.1,29.77,ESE,115,0.0,0.0,75,0.00,,---,0.00,VWS V14.01,2013-04-18 13:27:00,
2013-04-18 08:32:00,72.6,64.2,29.77,SSE,154,0.0,0.0,75,0.00,,---,0.00,VWS V14.01,2013-04-18 13:32:00,
2013-04-18 08:37:00,72.7,64.3,29.77,SSE,163,0.0,0.0,75,0.00,,---,0.00,VWS V14.01,2013-04-18 13:37:00,
2013-04-18 08:42:00,72.8,64.4,29.77,SE,145,0.0,0.0,75,0.00,,---,0.00,VWS V14.01,2013-04-18 13:42:00,
2013-04-18 08:47:00,72.8,64.0,29.77,SSE,160,0.0,0.0,74,0.00,,---,0.00,VWS V14.01,2013-04-18 13:47:00,
2013-04-18 08:52:00,72.9,64.1,29.77,SE,135,0.0,0.0,74,0.00,,---,0.00,VWS V14.01,2013-04-18 13:52:00,
2013-04-18 08:57:00,73.0,63.8,29.77,SE,126,0.0,0.0,73,0.00,,---,0.00,VWS V14.01,2013-04-18 13:57:00,
2013-04-18 09:02:00,73.0,63.8,29.77,SSE,160,0.0,0.0,73,0.00,,---,0.00,VWS V14.01,2013-04-18 14:02:00,
2013-04-18 09:07:00,73.2,63.6,29.77,SSE,150,0.0,0.0,72,0.00,,---,0.00,VWS V14.01,2013-04-18 14:07:00,
2013-04-18 09:12:00,73.3,63.3,29.77,South,180,0.0,0.0,71,0.00,,---,0.00,VWS V14.01,2013-04-18 14:12:00,
2013-04-18 09:17:00,73.6,63.2,29.76,SSE,153,0.0,0.0,70,0.00,,---,0.00,VWS V14.01,2013-04-18 14:17:00,
2013-04-18 09:22:00,73.9,63.5,29.76,SSE,167,0.0,0.0,70,0.00,,---,0.00,VWS V14.01,2013-04-18 14:22:00,
2013-04-18 09:27:00,74.0,63.2,29.76,East,96,0.0,0.0,69,0.00,,---,0.00,VWS V14.01,2013-04-18 14:27:00,
2013-04-18 09:32:00,74.2,63.4,29.76,SE,130,0.0,0.0,69,0.00,,---,0.00,VWS V14.01,2013-04-18 14:32:00,
2013-04-18 09:37:00,74.6,63.3,29.76,South,169,0.0,0.0,68,0.00,,---,0.00,VWS V14.01,2013-04-18 14:37:00,
2013-04-18 09:42:00,75.2,63.1,29.75,ESE,109,0.0,0.0,66,0.00,,---,0.00,VWS V14.01,2013-04-18 14:42:00,
2013-04-18 09:47:00,75.3,63.2,29.75,SSE,149,0.0,0.0,66,0.00,,---,0.00,VWS V14.01,2013-04-18 14:47:00,
2013-04-18 09:52:00,75.5,62.9,29.75,SE,130,0.0,0.0,65,0.00,,---,0.00,VWS V14.01,2013-04-18 14:52:00,
2013-04-18 09:57:00,75.5,62.9,29.76,SE,142,0.0,0.0,65,0.00,,---,0.00,VWS V14.01,2013-04-18 14:57:00,
2013-04-18 10:02:00,75.9,62.9,29.76,South,178,0.0,0.0,64,0.00,,---,0.00,VWS V14.01,2013-04-18 15:02:00,
2013-04-18 10:07:00,76.5,63.0,29.76,South,183,0.0,0.0,63,0.00,,---,0.00,VWS V14.01,2013-04-18 15:07:00,
2013-04-18 10:12:00,76.8,63.3,29.77,SE,140,0.0,0.0,63,0.00,,---,0.00,VWS V14.01,2013-04-18 15:12:00,
2013-04-18 10:17:00,77.4,63.4,29.77,South,178,0.0,0.0,62,0.00,,---,0.00,VWS V14.01,2013-04-18 15:17:00,
2013-04-18 10:22:00,78.0,63.5,29.77,SSE,151,0.0,0.0,61,0.00,,---,0.00,VWS V14.01,2013-04-18 15:22:00,
2013-04-18 10:27:00,78.5,63.0,29.78,SSE,155,0.0,0.0,59,0.00,,---,0.00,VWS V14.01,2013-04-18 15:27:00,
2013-04-18 10:32:00,78.3,62.3,29.78,SSE,156,0.0,0.0,58,0.00,,---,0.00,VWS V14.01,2013-04-18 15:32:00,
2013-04-18 10:37:00,78.5,62.5,29.78,SSE,157,0.0,0.0,58,0.00,,---,0.00,VWS V14.01,2013-04-18 15:37:00,
2013-04-18 10:42:00,78.6,62.6,29.78,SSE,153,0.0,0.0,58,0.00,,---,0.00,VWS V14.01,2013-04-18 15:42:00,
2013-04-18 10:47:00,78.5,63.0,29.78,SE,138,0.0,0.0,59,0.00,,---,0.00,VWS V14.01,2013-04-18 15:47:00,
2013-04-18 10:52:00,78.7,62.7,29.78,SE,145,0.0,0.0,58,0.00,,---,0.00,VWS V14.01,2013-04-18 15:52:00,
2013-04-18 10:57:00,78.8,62.3,29.78,SE,138,0.0,0.0,57,0.00,,---,0.00,VWS V14.01,2013-04-18 15:57:00,
2013-04-18 11:02:00,78.7,61.7,29.77,SSE,166,0.0,0.0,56,0.00,,---,0.00,VWS V14.01,2013-04-18 16:02:00,
2013-04-18 11:07:00,78.6,62.1,29.77,SE,142,0.0,0.0,57,0.00,,---,0.00,VWS V14.01,2013-04-18 16:07:00,
2013-04-18 11:12:00,79.2,62.7,29.77,South,173,0.0,0.0,57,0.00,,---,0.00,VWS V14.01,2013-04-18 16:12:00,
2013-04-18 11:17:00,79.7,63.1,29.77,SSE,164,0.0,0.0,57,0.00,,---,0.00,VWS V14.01,2013-04-18 16:17:00,
2013-04-18 11:22:00,79.8,62.7,29.77,SSE,163,0.0,0.0,56,0.00,,---,0.00,VWS V14.01,2013-04-18 16:22:00,
2013-04-18 11:27:00,79.5,62.5,29.77,SSE,156,0.0,0.0,56,0.00,,---,0.00,VWS V14.01,2013-04-18 16:27:00,
2013-04-18 11:32:00,79.4,62.9,29.76,South,178,0.0,0.0,57,0.00,,---,0.00,VWS V14.01,2013-04-18 16:32:00,
2013-04-18 11:37:00,80.1,63.0,29.76,South,178,0.0,0.0,56,0.00,,---,0.00,VWS V14.01,2013-04-18 16:37:00,
2013-04-18 11:42:00,80.5,62.3,29.76,SSE,155,0.0,0.0,54,0.00,,---,0.00,VWS V14.01,2013-04-18 16:42:00,
2013-04-18 11:47:00,80.1,62.5,29.76,SSE,157,0.0,0.0,55,0.00,,---,0.00,VWS V14.01,2013-04-18 16:47:00,
2013-04-18 11:52:00,79.5,61.9,29.76,ESE,120,0.0,0.0,55,0.00,,---,0.00,VWS V14.01,2013-04-18 16:52:00,
2013-04-18 11:57:00,79.4,62.9,29.76,SSE,155,0.0,0.0,57,0.00,,---,0.00,VWS V14.01,2013-04-18 16:57:00,
2013-04-18 12:02:00,79.3,62.3,29.76,South,186,0.0,0.0,56,0.00,,---,0.00,VWS V14.01,2013-04-18 17:02:00,
2013-04-18 12:07:00,79.0,62.0,29.75,SSE,147,0.0,0.0,56,0.00,,---,0.00,VWS V14.01,2013-04-18 17:07:00,
2013-04-18 12:12:00,78.6,62.1,29.75,SSE,149,0.0,0.0,57,0.00,,---,0.00,VWS V14.01,2013-04-18 17:12:00,
2013-04-18 12:17:00,78.6,62.1,29.75,SE,138,0.0,0.0,57,0.00,,---,0.00,VWS V14.01,2013-04-18 17:17:00,
2013-04-18 12:22:00,78.7,62.7,29.75,SE,140,0.0,0.0,58,0.00,,---,0.00,VWS V14.01,2013-04-18 17:22:00,
2013-04-18 12:27:00,78.7,62.7,29.75,SSE,148,0.0,0.0,58,0.00,,---,0.00,VWS V14.01,2013-04-18 17:27:00,
2013-04-18 12:32:00,78.5,63.0,29.75,SE,144,0.0,0.0,59,0.00,,---,0.00,VWS V14.01,2013-04-18 17:32:00,
2013-04-18 12:37:00,78.2,62.7,29.74,SSE,149,0.0,0.0,59,0.00,,---,0.00,VWS V14.01,2013-04-18 17:37:00,
2013-04-18 12:42:00,77.8,62.8,29.75,South,169,0.0,0.0,60,0.00,,---,0.00,VWS V14.01,2013-04-18 17:42:00,
2013-04-18 12:47:00,77.6,62.6,29.75,SSW,200,0.0,0.0,60,0.00,,---,0.00,VWS V14.01,2013-04-18 17:47:00,
2013-04-18 12:52:00,77.6,63.1,29.74,South,175,0.0,0.0,61,0.00,,---,0.00,VWS V14.01,2013-04-18 17:52:00,
2013-04-18 12:57:00,77.8,63.8,29.74,SSE,168,0.0,0.0,62,0.00,,---,0.00,VWS V14.01,2013-04-18 17:57:00,
2013-04-18 13:02:00,77.8,63.3,29.74,SSE,153,0.0,0.0,61,0.00,,---,0.00,VWS V14.01,2013-04-18 18:02:00,
2013-04-18 13:07:00,77.9,63.8,29.74,ESE,117,0.0,0.0,62,0.00,,---,0.00,VWS V14.01,2013-04-18 18:07:00,
2013-04-18 13:12:00,77.6,63.6,29.74,SSE,151,0.0,0.0,62,0.00,,---,0.00,VWS V14.01,2013-04-18 18:12:00,
2013-04-18 13:17:00,77.1,63.5,29.73,South,175,0.0,0.0,63,0.00,,---,0.00,VWS V14.01,2013-04-18 18:17:00,
2013-04-18 13:22:00,76.9,63.8,29.73,SE,132,0.0,0.0,64,0.00,,---,0.00,VWS V14.01,2013-04-18 18:22:00,
2013-04-18 13:27:00,77.1,64.0,29.72,South,174,0.0,0.0,64,0.00,,---,0.00,VWS V14.01,2013-04-18 18:27:00,
2013-04-18 13:32:00,77.2,64.1,29.72,South,169,0.0,0.0,64,0.00,,---,0.00,VWS V14.01,2013-04-18 18:32:00,
2013-04-18 13:37:00,77.5,64.8,29.72,South,184,0.0,0.0,65,0.00,,---,0.00,VWS V14.01,2013-04-18 18:37:00,
2013-04-18 13:42:00,77.7,64.6,29.72,SSE,157,0.0,0.0,64,0.00,,---,0.00,VWS V14.01,2013-04-18 18:42:00,
2013-04-18 13:47:00,77.7,64.6,29.71,ESE,123,0.0,0.0,64,0.00,,---,0.00,VWS V14.01,2013-04-18 18:47:00,
2013-04-18 13:52:00,77.7,65.0,29.71,ESE,116,0.0,0.0,65,0.00,,---,0.00,VWS V14.01,2013-04-18 18:52:00,
2013-04-18 13:57:00,77.9,64.8,29.70,SSE,148,0.0,0.0,64,0.00,,---,0.00,VWS V14.01,2013-04-18 18:57:00,
2013-04-18 14:02:00,78.1,64.9,29.69,SE,127,0.0,0.0,64,0.00,,---,0.00,VWS V14.01,2013-04-18 19:02:00,
2013-04-18 14:07:00,78.1,64.5,29.69,SSE,166,0.0,0.0,63,0.00,,---,0.00,VWS V14.01,2013-04-18 19:07:00,
2013-04-18 14:12:00,78.1,64.5,29.70,SE,142,0.0,0.0,63,0.00,,---,0.00,VWS V14.01,2013-04-18 19:12:00,
2013-04-18 14:17:00,78.0,64.4,29.69,SE,146,0.0,0.0,63,0.00,,---,0.00,VWS V14.01,2013-04-18 19:17:00,
2013-04-18 14:22:00,78.0,64.4,29.69,SE,140,0.0,0.0,63,0.00,,---,0.00,VWS V14.01,2013-04-18 19:22:00,
2013-04-18 14:27:00,78.0,64.8,29.68,ESE,105,0.0,0.0,64,0.00,,---,0.00,VWS V14.01,2013-04-18 19:27:00,
2013-04-18 14:32:00,78.1,64.5,29.67,SE,129,0.0,0.0,63,0.00,,---,0.00,VWS V14.01,2013-04-18 19:32:00,
2013-04-18 14:37:00,78.1,64.5,29.66,SSE,151,0.0,0.0,63,0.00,,---,0.00,VWS V14.01,2013-04-18 19:37:00,
2013-04-18 14:42:00,78.2,64.1,29.66,SSE,165,0.0,0.0,62,0.00,,---,0.00,VWS V14.01,2013-04-18 19:42:00,
2013-04-18 14:47:00,78.3,64.7,29.66,SE,140,0.0,0.0,63,0.00,,---,0.00,VWS V14.01,2013-04-18 19:47:00,
2013-04-18 14:52:00,78.7,65.1,29.66,SE,138,0.0,0.0,63,0.00,,---,0.00,VWS V14.01,2013-04-18 19:52:00,
2013-04-18 14:57:00,79.2,64.6,29.65,SE,146,0.0,0.0,61,0.00,,---,0.00,VWS V14.01,2013-04-18 19:57:00,
2013-04-18 15:02:00,79.6,64.0,29.65,SSE,157,0.0,0.0,59,0.00,,---,0.00,VWS V14.01,2013-04-18 20:02:00,
2013-04-18 15:07:00,79.6,64.0,29.64,SSE,149,0.0,0.0,59,0.00,,---,0.00,VWS V14.01,2013-04-18 20:07:00,
2013-04-18 15:12:00,79.9,64.3,29.64,ESE,113,0.0,0.0,59,0.00,,---,0.00,VWS V14.01,2013-04-18 20:12:00,
2013-04-18 15:17:00,80.2,64.1,29.63,ESE,121,0.0,0.0,58,0.00,,---,0.00,VWS V14.01,2013-04-18 20:17:00,
2013-04-18 15:22:00,80.1,63.5,29.64,East,101,0.0,0.0,57,0.00,,---,0.00,VWS V14.01,2013-04-18 20:22:00,
2013-04-18 15:27:00,79.9,63.8,29.64,SE,140,0.0,0.0,58,0.00,,---,0.00,VWS V14.01,2013-04-18 20:27:00,
2013-04-18 15:32:00,79.7,63.6,29.64,SSE,162,0.0,0.0,58,0.00,,---,0.00,VWS V14.01,2013-04-18 20:32:00,
2013-04-18 15:37:00,79.4,63.8,29.64,SSE,162,0.0,0.0,59,0.00,,---,0.00,VWS V14.01,2013-04-18 20:37:00,
2013-04-18 15:42:00,79.2,63.7,29.63,East,82,0.0,0.0,59,0.00,,---,0.00,VWS V14.01,2013-04-18 20:42:00,
2013-04-18 15:47:00,79.0,63.9,29.62,ESE,119,0.0,0.0,60,0.00,,---,0.00,VWS V14.01,2013-04-18 20:47:00,
2013-04-18 15:52:00,78.9,63.8,29.61,SE,129,0.0,0.0,60,0.00,,---,0.00,VWS V14.01,2013-04-18 20:52:00,
2013-04-18 15:57:00,78.8,64.2,29.61,SE,125,0.0,0.0,61,0.00,,---,0.00,VWS V14.01,2013-04-18 20:57:00,
2013-04-18 16:02:00,78.8,64.2,29.61,ESE,114,0.0,0.0,61,0.00,,---,0.00,VWS V14.01,2013-04-18 21:02:00,
2013-04-18 16:07:00,78.7,64.1,29.61,ESE,115,0.0,0.0,61,0.00,,---,0.00,VWS V14.01,2013-04-18 21:07:00,
2013-04-18 16:12:00,78.7,64.1,29.61,South,171,0.0,0.0,61,0.00,,---,0.00,VWS V14.01,2013-04-18 21:12:00,
2013-04-18 16:17:00,78.5,64.4,29.60,SSE,161,0.0,0.0,62,0.00,,---,0.00,VWS V14.01,2013-04-18 21:17:00,
2013-04-18 16:22:00,78.4,64.3,29.60,SE,133,0.0,0.0,62,0.00,,---,0.00,VWS V14.01,2013-04-18 21:22:00,
2013-04-18 16:27:00,78.3,64.7,29.60,SSE,157,0.0,0.0,63,0.00,,---,0.00,VWS V14.01,2013-04-18 21:27:00,
2013-04-18 16:32:00,78.2,64.6,29.59,ESE,109,0.0,0.0,63,0.00,,---,0.00,VWS V14.01,2013-04-18 21:32:00,
2013-04-18 16:37:00,78.1,64.5,29.59,ESE,117,0.0,0.0,63,0.00,,---,0.00,VWS V14.01,2013-04-18 21:37:00,
2013-04-18 16:42:00,78.0,64.4,29.60,SSE,150,0.0,0.0,63,0.00,,---,0.00,VWS V14.01,2013-04-18 21:42:00,
2013-04-18 16:47:00,78.0,64.4,29.60,SE,125,0.0,0.0,63,0.00,,---,0.00,VWS V14.01,2013-04-18 21:47:00,
2013-04-18 16:52:00,78.0,64.4,29.60,SSE,163,0.0,0.0,63,0.00,,---,0.00,VWS V14.01,2013-04-18 21:52:00,
2013-04-18 16:57:00,78.0,64.4,29.60,SE,135,0.0,0.0,63,0.00,,---,0.00,VWS V14.01,2013-04-18 21:57:00,
2013-04-18 17:02:00,78.0,64.4,29.60,ESE,104,0.0,0.0,63,0.00,,---,0.00,VWS V14.01,2013-04-18 22:02:00,
2013-04-18 17:07:00,78.1,64.5,29.60,SE,136,0.0,0.0,63,0.00,,---,0.00,VWS V14.01,2013-04-18 22:07:00,
2013-04-18 17:12:00,78.2,64.6,29.60,SSE,164,0.0,0.0,63,0.00,,---,0.00,VWS V14.01,2013-04-18 22:12:00,
2013-04-18 17:17:00,78.1,64.9,29.60,SE,140,0.0,0.0,64,0.00,,---,0.00,VWS V14.01,2013-04-18 22:17:00,
2013-04-18 17:22:00,78.0,64.8,29.61,South,171,2.0,3.0,64,0.00,,---,0.00,VWS V14.01,2013-04-18 22:22:00,
2013-04-18 17:27:00,78.0,65.3,29.60,SSE,156,0.0,3.0,65,0.00,,---,0.00,VWS V14.01,2013-04-18 22:27:00,
2013-04-18 17:32:00,77.6,66.2,29.61,South,173,8.0,10.0,68,0.01,,---,0.01,VWS V14.01,2013-04-18 22:32:00,
2013-04-18 17:37:00,76.7,66.6,29.62,SE,128,12.0,12.0,71,0.05,,---,0.05,VWS V14.01,2013-04-18 22:37:00,
2013-04-18 17:42:00,75.1,67.4,29.62,SSE,156,1.0,12.0,77,0.10,,---,0.10,VWS V14.01,2013-04-18 22:42:00,
2013-04-18 17:47:00,73.8,67.2,29.61,SE,126,1.0,12.0,80,0.12,,---,0.12,VWS V14.01,2013-04-18 22:47:00,
2013-04-18 17:52:00,72.9,67.4,29.62,SE,127,0.0,12.0,83,0.13,,---,0.13,VWS V14.01,2013-04-18 22:52:00,
2013-04-18 17:57:00,72.3,67.5,29.62,SE,142,4.0,12.0,85,0.15,,---,0.15,VWS V14.01,2013-04-18 22:57:00,
2013-04-18 18:02:00,71.7,67.6,29.63,SSE,165,7.0,12.0,87,0.19,,---,0.19,VWS V14.01,2013-04-18 23:02:00,
2013-04-18 18:07:00,71.2,67.5,29.61,SE,132,2.0,5.0,88,0.24,,---,0.24,VWS V14.01,2013-04-18 23:07:00,
2013-04-18 18:12:00,70.8,67.4,29.61,SE,131,0.0,5.0,89,0.25,,---,0.25,VWS V14.01,2013-04-18 23:12:00,
2013-04-18 18:17:00,70.4,67.3,29.61,SE,132,0.0,5.0,90,0.26,,---,0.26,VWS V14.01,2013-04-18 23:17:00,
2013-04-18 18:22:00,70.2,67.4,29.61,SE,132,0.0,5.0,91,0.28,,---,0.28,VWS V14.01,2013-04-18 23:22:00,
2013-04-18 18:27:00,70.0,67.3,29.60,ESE,102,0.0,5.0,91,0.30,,---,0.30,VWS V14.01,2013-04-18 23:27:00,
2013-04-18 18:32:00,69.9,67.5,29.61,ESE,107,0.0,5.0,92,0.31,,---,0.31,VWS V14.01,2013-04-18 23:32:00,
2013-04-18 18:37:00,69.7,67.3,29.60,East,96,0.0,0.0,92,0.35,,---,0.36,VWS V14.01,2013-04-18 23:37:00,
2013-04-18 18:42:00,69.5,67.4,29.60,ENE,76,0.0,0.0,93,0.39,,---,0.40,VWS V14.01,2013-04-18 23:42:00,
2013-04-18 18:47:00,69.4,67.3,29.59,SSW,213,0.0,0.0,93,0.41,,---,0.42,VWS V14.01,2013-04-18 23:47:00,
2013-04-18 18:52:00,69.3,67.2,29.58,SW,222,0.0,0.0,93,0.42,,---,0.43,VWS V14.01,2013-04-18 23:52:00,
2013-04-18 18:57:00,69.2,67.4,29.59,SW,223,0.0,0.0,94,0.43,,---,0.44,VWS V14.01,2013-04-18 23:57:00,
2013-04-18 19:02:00,69.1,67.3,29.58,WSW,252,0.0,0.0,94,0.56,,---,0.57,VWS V14.01,2013-04-19 00:02:00,
2013-04-18 19:07:00,68.6,66.5,29.57,WSW,240,0.0,0.0,93,0.40,,---,0.62,VWS V14.01,2013-04-19 00:07:00,
2013-04-18 19:12:00,66.9,63.9,29.59,West,278,0.0,0.0,90,0.51,,---,0.73,VWS V14.01,2013-04-19 00:12:00,
2013-04-18 19:17:00,64.8,61.5,29.60,West,267,0.0,0.0,89,0.64,,---,0.86,VWS V14.01,2013-04-19 00:17:00,
2013-04-18 19:22:00,62.6,59.6,29.63,West,267,0.0,0.0,90,0.73,,---,0.95,VWS V14.01,2013-04-19 00:22:00,
2013-04-18 19:27:00,60.3,57.4,29.66,West,261,0.0,0.0,90,0.84,,---,1.06,VWS V14.01,2013-04-19 00:27:00,
2013-04-18 19:32:00,58.8,56.2,29.66,North,9,0.0,0.0,91,0.90,,---,1.12,VWS V14.01,2013-04-19 00:32:00,
2013-04-18 19:37:00,57.9,55.9,29.66,WSW,243,0.0,0.0,93,0.85,,---,1.17,VWS V14.01,2013-04-19 00:37:00,
2013-04-18 19:42:00,56.9,54.6,29.64,SSW,212,0.0,0.0,92,0.88,,---,1.20,VWS V14.01,2013-04-19 00:42:00,
2013-04-18 19:47:00,56.2,54.2,29.65,West,261,0.0,0.0,93,0.92,,---,1.24,VWS V14.01,2013-04-19 00:47:00,
2013-04-18 19:52:00,55.6,53.6,29.65,WNW,286,0.0,0.0,93,0.94,,---,1.26,VWS V14.01,2013-04-19 00:52:00,
2013-04-18 19:57:00,55.1,53.4,29.67,WNW,286,0.0,0.0,94,1.00,,---,1.32,VWS V14.01,2013-04-19 00:57:00,
2013-04-18 20:02:00,54.7,53.0,29.69,WSW,247,0.0,0.0,94,1.04,,---,1.36,VWS V14.01,2013-04-19 01:02:00,
2013-04-18 20:07:00,54.3,52.6,29.68,West,267,0.0,0.0,94,0.80,,---,1.40,VWS V14.01,2013-04-19 01:07:00,
2013-04-18 20:12:00,54.0,52.3,29.66,NE,39,0.0,0.0,94,0.83,,---,1.43,VWS V14.01,2013-04-19 01:12:00,
2013-04-18 20:17:00,53.6,51.9,29.66,West,269,0.0,0.0,94,0.84,,---,1.44,VWS V14.01,2013-04-19 01:17:00,
2013-04-18 20:22:00,53.4,52.0,29.69,SW,234,0.0,0.0,95,0.85,,---,1.45,VWS V14.01,2013-04-19 01:22:00,
2013-04-18 20:27:00,52.9,51.2,29.69,West,263,0.0,0.0,94,0.86,,---,1.46,VWS V14.01,2013-04-19 01:27:00,
2013-04-18 20:32:00,52.3,50.6,29.71,WNW,288,0.0,0.0,94,0.88,,---,1.48,VWS V14.01,2013-04-19 01:32:00,
2013-04-18 20:37:00,52.0,50.3,29.73,WNW,284,0.0,0.0,94,0.35,,---,1.50,VWS V14.01,2013-04-19 01:37:00,
2013-04-18 20:42:00,51.5,49.8,29.73,WSW,258,0.0,0.0,94,0.38,,---,1.53,VWS V14.01,2013-04-19 01:42:00,
2013-04-18 20:47:00,51.1,49.4,29.71,West,259,0.0,0.0,94,0.40,,---,1.55,VWS V14.01,2013-04-19 01:47:00,
2013-04-18 20:52:00,50.6,48.9,29.72,West,262,0.0,0.0,94,0.43,,---,1.58,VWS V14.01,2013-04-19 01:52:00,
2013-04-18 20:57:00,50.4,48.7,29.73,West,264,0.0,0.0,94,0.43,,---,1.58,VWS V14.01,2013-04-19 01:57:00,
2013-04-18 21:02:00,50.2,48.5,29.72,West,274,0.0,0.0,94,0.44,,---,1.59,VWS V14.01,2013-04-19 02:02:00,
2013-04-18 21:07:00,50.0,48.6,29.72,West,267,0.0,0.0,95,0.22,,---,1.60,VWS V14.01,2013-04-19 02:07:00,
2013-04-18 21:12:00,49.9,48.5,29.73,WSW,258,0.0,0.0,95,0.24,,---,1.62,VWS V14.01,2013-04-19 02:12:00,
2013-04-18 21:17:00,49.8,48.4,29.74,West,275,0.0,0.0,95,0.26,,---,1.64,VWS V14.01,2013-04-19 02:17:00,
2013-04-18 21:22:00,49.6,48.2,29.74,West,262,0.0,0.0,95,0.27,,---,1.65,VWS V14.01,2013-04-19 02:22:00,
2013-04-18 21:27:00,49.4,48.0,29.76,WSW,258,0.0,0.0,95,0.27,,---,1.65,VWS V14.01,2013-04-19 02:27:00,
2013-04-18 21:31:00,49.3,47.9,29.75,West,277,0.0,0.0,95,0.28,,---,1.66,VWS V14.01,2013-04-19 02:31:00,
2013-04-18 21:36:00,49.0,47.3,29.76,WSW,257,0.0,0.0,94,0.22,,---,1.71,VWS V14.01,2013-04-19 02:36:00,
2013-04-18 21:41:00,48.7,47.0,29.76,WSW,252,0.0,0.0,94,0.28,,---,1.77,VWS V14.01,2013-04-19 02:41:00,
2013-04-18 21:46:00,48.5,46.9,29.75,West,279,0.0,0.0,94,0.29,,---,1.78,VWS V14.01,2013-04-19 02:46:00,
2013-04-18 21:51:00,48.3,46.9,29.76,West,269,0.0,0.0,95,0.30,,---,1.79,VWS V14.01,2013-04-19 02:51:00,
2013-04-18 21:56:00,48.2,46.8,29.76,West,263,0.0,0.0,95,0.32,,---,1.81,VWS V14.01,2013-04-19 02:56:00,
2013-04-18 22:01:00,48.0,46.6,29.77,West,259,0.0,0.0,95,0.33,,---,1.82,VWS V14.01,2013-04-19 03:01:00,
2013-04-18 22:06:00,48.0,46.6,29.77,WSW,254,0.0,0.0,95,0.22,,---,1.82,VWS V14.01,2013-04-19 03:06:00,
2013-04-18 22:11:00,47.9,46.3,29.78,WSW,250,0.0,0.0,94,0.22,,---,1.82,VWS V14.01,2013-04-19 03:11:00,
2013-04-18 22:16:00,47.9,46.5,29.77,WNW,284,0.0,0.0,95,0.23,,---,1.83,VWS V14.01,2013-04-19 03:16:00,
2013-04-18 22:21:00,47.8,46.4,29.79,SW,228,0.0,0.0,95,0.24,,---,1.84,VWS V14.01,2013-04-19 03:21:00,
2013-04-18 22:26:00,47.9,46.5,29.83,SW,229,0.0,0.0,95,0.24,,---,1.84,VWS V14.01,2013-04-19 03:26:00,
2013-04-18 22:31:00,47.8,46.2,29.81,WSW,242,0.0,0.0,94,0.24,,---,1.84,VWS V14.01,2013-04-19 03:31:00,
2013-04-18 22:36:00,47.7,46.1,29.79,West,281,0.0,0.0,94,0.16,,---,1.84,VWS V14.01,2013-04-19 03:36:00,
2013-04-18 22:41:00,47.6,46.0,29.78,SW,227,0.0,0.0,94,0.17,,---,1.85,VWS V14.01,2013-04-19 03:41:00,
2013-04-18 22:46:00,47.5,46.1,29.78,West,273,0.0,0.0,95,0.18,,---,1.86,VWS V14.01,2013-04-19 03:46:00,
2013-04-18 22:51:00,47.5,46.1,29.79,SW,214,0.0,0.0,95,0.18,,---,1.86,VWS V14.01,2013-04-19 03:51:00,
2013-04-18 22:56:00,47.4,45.8,29.82,SW,231,0.0,0.0,94,0.18,,---,1.86,VWS V14.01,2013-04-19 03:56:00,
2013-04-18 23:01:00,47.3,45.7,29.84,SW,218,0.0,0.0,94,0.18,,---,1.86,VWS V14.01,2013-04-19 04:01:00,
2013-04-18 23:06:00,47.3,45.7,29.83,West,264,0.0,0.0,94,0.04,,---,1.86,VWS V14.01,2013-04-19 04:06:00,
2013-04-18 23:11:00,47.0,45.1,29.81,WSW,250,0.0,0.0,93,0.04,,---,1.86,VWS V14.01,2013-04-19 04:11:00,
2013-04-18 23:16:00,47.0,45.1,29.82,WSW,242,0.0,0.0,93,0.04,,---,1.86,VWS V14.01,2013-04-19 04:16:00,
2013-04-18 23:21:00,46.9,45.0,29.82,West,270,0.0,0.0,93,0.04,,---,1.86,VWS V14.01,2013-04-19 04:21:00,
2013-04-18 23:26:00,46.9,45.0,29.81,West,263,0.0,0.0,93,0.04,,---,1.86,VWS V14.01,2013-04-19 04:26:00,
2013-04-18 23:31:00,46.9,45.0,29.79,West,277,0.0,0.0,93,0.04,,---,1.86,VWS V14.01,2013-04-19 04:31:00,
2013-04-18 23:36:00,46.9,45.3,29.81,WNW,294,0.0,0.0,94,0.02,,---,1.86,VWS V14.01,2013-04-19 04:36:00,
2013-04-18 23:41:00,46.9,45.3,29.81,West,269,0.0,0.0,94,0.02,,---,1.86,VWS V14.01,2013-04-19 04:41:00,
2013-04-18 23:46:00,46.9,45.3,29.81,SW,217,0.0,0.0,94,0.02,,---,1.86,VWS V14.01,2013-04-19 04:46:00,
2013-04-18 23:51:00,46.8,45.2,29.84,SW,218,0.0,0.0,94,0.02,,---,1.86,VWS V14.01,2013-04-19 04:51:00,
2013-04-18 23:56:00,46.7,44.8,29.83,SW,223,0.0,0.0,93,0.02,,---,1.86,VWS V14.01,2013-04-19 04:56:00,